Location: Chavannes
(47.1090°N, 0.2226°W)
Time: 04:57:15
(UTC+00:00)

Okean 1-7 Rocket - Pass Details

Date: 16 October 2021
Orbit: 617 x 648 km, 82.5° (Epoch: 03 December)

Event Time Altitude Azimuth Distance (km) Brightness Sun altitude
Rises 18:14:48 0° 359° (N) 2,903 7.0 -11.5°
Reaches altitude 10° 18:17:16 10° 11° (N) 1,994 6.1 -12.0°
Maximum altitude 18:21:09 30° 72° (ENE) 1,127 4.4 -12.6°
Enters shadow 18:24:36 12° 131° (SE) 1,838 5.5 -13.2°
